Location: Mississauga
(43.5802°N, 79.6166°W)
Time: 13:23:38
(UTC-04:00)

Cosmos 1437 Rocket - Visible Passes

Search period start: 25 September 2016 00:00
Search period end: 05 October 2016 00:00
Orbit: 510 x 566 km, 81.2° (Epoch: 25 September)

Date Brightness Start Highest point End Pass type
(mag) Time Alt. Az. Time Alt. Az. Time Alt. Az.
30 Sep 5.4 21:28:28 12° N 21:28:28 12° N 21:28:50 10° N visible
01 Oct 4.9 21:19:29 18° N 21:19:29 18° N 21:20:37 10° N visible
02 Oct 3.8 21:09:54 38° N 21:09:54 38° N 21:12:25 10° N visible
03 Oct 2.9 20:56:18 10° SSW 21:00:17 74° W 21:04:13 10° N visible
04 Oct 2.9 20:48:07 10° SSW 20:52:05 73° W 20:56:00 10° N visible
